Regional Weather Roundup
Issued by NWS Little Rock, AR

Home | Current Version | Previous Version | Graphics & Text | Print | Product List | Glossary On
Versions: 1 2 3 4 5 6 7 8 9 10 11 12 13 14 15 16 17 18 19 20 21 22 23 24 25 26 27 28 29 30 31 32 33 34 35 36 37 38 39 40 41 42 43 44 45 46 47 48 49 50
000
ASUS44 KLZK 011305
RWRLZK

WEATHER ROUNDUP FOR ARKANSAS
NATIONAL WEATHER SERVICE LITTLE ROCK AR
800 AM CDT TUE SEP 01 2015

NOTE: "FAIR" INDICATES FEW OR NO CLOUDS BELOW 12,000 FEET WITH NO
SIGNIFICANT WEATHER AND/OR OBSTRUCTIONS TO VISIBILITY.

ARZ001-003-010-029-011400-
NORTHWEST ARKANSAS

CITY           SKY/WX    TMP DP  RH WIND       PRES   REMARKS
FAYETTEVILLE   SUNNY     65  65 100 CALM      30.10S FOG
FORT SMITH     SUNNY     71  67  87 E3        30.06S FOG
BENTONVILLE    SUNNY     70  64  83 CALM      30.11R
ROGERS         SUNNY     71  67  87 SE6       30.11S
SILOAM SPGS    SUNNY     70  61  73 CALM      30.08S
SPRINGDALE     SUNNY     72  66  83 SE3       30.12S
$$

ARZ004-005-016-011400-
NORTH CENTRAL ARKANSAS

CITY           SKY/WX    TMP DP  RH WIND       PRES   REMARKS
BATESVILLE     MOSUNNY   72  70  94 CALM      30.10S
FLIPPIN        SUNNY     68  63  83 CALM      30.09R
MTN HOME       SUNNY     72  69  90 SE3       30.10S FOG
$$

ARZ040-041-011400-
WEST CENTRAL ARKANSAS

CITY           SKY/WX    TMP DP  RH WIND       PRES   REMARKS
MENA           SUNNY     68  66  94 CALM      30.10S
MOUNT IDA      SUNNY     67  66  97 CALM      30.07R FOG
$$

ARZ009-017-025-026-028-011400-
NORTHEAST ARKANSAS

CITY           SKY/WX    TMP DP  RH WIND       PRES   REMARKS
JONESBORO      SUNNY     71  70  96 NE5       30.10R
NEWPORT        MOSUNNY   74  72  93 CALM      30.11R
WALNUT RIDGE   SUNNY     72  66  83 CALM      30.11R
BLYTHEVILLE    SUNNY     73  72  96 CALM      30.12R
$$

ARZ022-023-033-042-044-011400-
CENTRAL ARKANSAS

CITY           SKY/WX    TMP DP  RH WIND       PRES   REMARKS
LITTLE ROCK    PTSUNNY   75  71  87 CALM      30.07S
N LITTLE ROCK    N/A     74  72  92 E2        30.07S
JACKSONVILLE   MOSUNNY   71  69  93 NE1       30.07R
SEARCY         SUNNY     74  70  87 NE6       30.10R
HOT SPRINGS    SUNNY     70  67  90 CALM      30.08S FOG
RUSSELLVILLE   SUNNY     70  69  97 CALM      30.08R FOG
$$

ARZ036-011400-
EAST ARKANSAS

CITY           SKY/WX    TMP DP  RH WIND       PRES   REMARKS
WEST MEMPHIS   MOSUNNY   75  71  87 SE5       30.09R
$$

ARZ050-053-066-070-073-011400-
SOUTHWEST ARKANSAS

CITY           SKY/WX    TMP DP  RH WIND       PRES   REMARKS
ARKADELPHIA    FAIR      69  69 100 CALM      30.08S FOG
CAMDEN         PTSUNNY   72  66  83 CALM      30.07S
TEXARKANA      MOSUNNY   71  68  90 CALM      30.06S
EL DORADO      PTSUNNY   75  66  73 CALM      30.07S
DE QUEEN       SUNNY     67  67 100 CALM      30.05S FOG
$$

ARZ056-057-069-011400-
SOUTHEAST ARKANSAS

CITY           SKY/WX    TMP DP  RH WIND       PRES   REMARKS
PINE BLUFF     CLOUDY    73  70  90 CALM      30.08R
STUTTGART      MOSUNNY   75  66  73 SE6       30.08S
MONTICELLO     PTSUNNY   77  69  76 CALM      30.07S

$$




USA.gov is the U.S. government's official web portal to all federal, state and local government web resources and services.